Weather History for CYYT - November, 2012

Change the Weather History Date:

Wednesday, November 14, 2012

  Actual Average Record
Temperature  
Mean Temperature 50 °F -  
Max Temperature 60 °F 39 °F 64 °F (2002)
Min Temperature 41 °F 28 °F 24 °F (2001)
Degree Days  
Heating Degree Days 14    
Moisture  
Dew Point 50 °F    
Average Humidity 96    
Maximum Humidity 100    
Minimum Humidity 88    
Precipitation  
Precipitation 0.16 in 0.19 in - ()
Sea Level Pressure  
Sea Level Pressure 30.40 in    
Wind  
Wind Speed 16 mph ()    
Max Wind Speed 25 mph    
Max Gust Speed 38 mph    
Visibility 9.7 miles    
Events Fog , Rain    
Averages and records for this station are not official NWS values.
T = Trace of Precipitation, MM = Missing Value Source: Averaged Metar Reports

Daily Weather History Graph

Daily Weather History Graph

Search for Another Location

Airport or City:

Trip Planner

Search our weather history database for the weather conditions in past years. The results will help you decide how hot, cold, wet, or windy it might be!

Date:

Astronomy

Nov. 14, 2012 Rise Set
Actual Time 7:05 AM NST 4:25 PM NST
Civil Twilight 6:31 AM NST 4:58 PM NST
Nautical Twilight 5:54 AM NST 5:36 PM NST
Astronomical Twilight 5:18 AM NST 6:12 PM NST
Moon 7:51 AM NST (11/14) 5:03 PM NST (11/14)
Length of Visible Light 10h 26m
Length of Day
9h 19m
New Moon, 1% of the Moon is Illuminated
Nov 14
New Moon
Nov 20
First Quarter
Nov 28
Full
Dec 6
Last Quarter
Dec 13
New

Hourly Weather History & Observations

Time (NST) Temp. Windchill Dew Point Humidity Pressure Visibility Wind Dir Wind Speed Gust Speed Precip Events Conditions
12:30 AM 53.6 °F - 51.8 °F 94% 30.38 in 15.0 mi WSW 18.4 mph 29.9 mph N/A   Overcast
12:59 AM 53.6 °F - 51.8 °F 94% 30.38 in 15.0 mi WSW 16.1 mph 24.2 mph N/A   Scattered Clouds
1:30 AM 53.6 °F - 51.8 °F 94% 30.37 in 15.0 mi WSW 20.7 mph - N/A   Partly Cloudy
2:30 AM 54 °F - 52 °F 90% 30.37 in 15 mi WSW 23.0 mph - -  
2:30 AM 55.4 °F - 51.8 °F 88% 30.37 in 15.0 mi WSW 23.0 mph 31.1 mph N/A   Clear
3:30 AM 55.4 °F - 53.6 °F 94% 30.35 in 15.0 mi SW 25.3 mph 33.4 mph N/A   Partly Cloudy
3:54 AM 55.4 °F - 53.6 °F 94% 30.35 in 15.0 mi WSW 23.0 mph 38.0 mph N/A   Mostly Cloudy
4:30 AM 55.4 °F - 53.6 °F 94% 30.35 in 15.0 mi WSW 21.9 mph 34.5 mph N/A   Mostly Cloudy
4:37 AM 55.4 °F - 53.6 °F 94% 30.35 in 15.0 mi WSW 21.9 mph 32.2 mph N/A   Partly Cloudy
5:30 AM 55.4 °F - 53.6 °F 94% 30.37 in 15.0 mi WSW 19.6 mph - N/A   Mostly Cloudy
6:30 AM 55.4 °F - 53.6 °F 94% 30.39 in 15.0 mi WSW 15.0 mph - N/A   Mostly Cloudy
7:30 AM 57.2 °F - 55.4 °F 94% 30.40 in 15.0 mi WSW 17.3 mph 25.3 mph N/A   Overcast
8:30 AM 58 °F - 56 °F 92% 30.41 in 15 mi WSW 18.4 mph - -   Overcast
8:30 AM 57.2 °F - 55.4 °F 94% 30.41 in 15.0 mi WSW 18.4 mph 25.3 mph N/A   Overcast
9:30 AM 59.0 °F - 57.2 °F 94% 30.41 in 15.0 mi SW 19.6 mph 26.5 mph N/A   Mostly Cloudy
10:30 AM 59.0 °F - 57.2 °F 94% 30.40 in 15.0 mi WSW 18.4 mph 29.9 mph N/A   Overcast
11:30 AM 59.0 °F - 57.2 °F 94% 30.40 in 15.0 mi WSW 17.3 mph 26.5 mph N/A   Overcast
12:30 PM 59.0 °F - 57.2 °F 94% 30.39 in 15.0 mi SW 15.0 mph 21.9 mph N/A   Overcast
1:15 PM 59.0 °F - 57.2 °F 94% 30.38 in 15.0 mi WSW 13.8 mph 21.9 mph N/A   Overcast
1:30 PM 60.8 °F - 57.2 °F 88% 30.38 in 15.0 mi WSW 17.3 mph - N/A   Overcast
2:30 PM 59 °F - 57 °F 89% 30.38 in 15 mi WSW 13.8 mph - -   Overcast
2:30 PM 59.0 °F - 57.2 °F 94% 30.38 in 15.0 mi West 12.7 mph 18.4 mph N/A   Overcast
3:30 PM 48.2 °F - 46.4 °F 93% 30.41 in 15.0 mi NNE 12.7 mph - N/A   Overcast
3:58 PM 44.6 °F 38.8 °F 44.6 °F 100% 30.42 in 8.0 mi NNE 11.5 mph - N/A   Light Drizzle
4:15 PM 44.6 °F 38.8 °F 44.6 °F 100% 30.42 in 0.5 mi NNE 11.5 mph - N/A Fog Light Drizzle
4:30 PM 44.6 °F 38.4 °F 44.6 °F 100% 30.42 in 0.5 mi NNE 12.7 mph - N/A Fog Light Drizzle
4:56 PM 44.6 °F 39.2 °F 44.6 °F 100% 30.42 in 0.2 mi NE 10.4 mph - N/A Fog , Rain Light Rain
5:30 PM 42.8 °F 36.2 °F 42.8 °F 100% 30.43 in 0.2 mi NNE 12.7 mph - N/A Fog , Rain Light Rain
6:30 PM 42.8 °F 34.8 °F 42.8 °F 100% 30.44 in 0.2 mi NNE 17.3 mph - N/A Fog , Rain Light Rain
6:40 PM 42.8 °F 36.2 °F 42.8 °F 100% 30.44 in 0.5 mi NNE 12.7 mph 18.4 mph N/A Fog , Rain Light Rain
7:30 PM 41.0 °F 34.3 °F 41.0 °F 100% 30.43 in 0.4 mi NNE 11.5 mph 20.7 mph N/A Fog , Rain Light Rain
8:30 PM 41 °F - 41 °F 100% 30.44 in 0 mi NNE 11.5 mph - - Rain Light Rain
8:30 PM 41.0 °F 34.3 °F 41.0 °F 100% 30.44 in 0.4 mi NNE 11.5 mph - N/A Fog , Rain Light Rain
9:08 PM 41.0 °F 34.7 °F 41.0 °F 100% 30.44 in 0.5 mi NNE 10.4 mph - N/A Fog , Rain Light Rain
9:30 PM 41.0 °F 34.7 °F 41.0 °F 100% 30.43 in 0.5 mi NE 10.4 mph - N/A Fog , Rain Light Rain
10:30 PM 42.8 °F 38.0 °F 42.8 °F 100% 30.43 in 0.5 mi NE 8.1 mph - N/A Fog , Rain Light Rain
11:30 PM 42.8 °F 36.2 °F 42.8 °F 100% 30.43 in 0.5 mi NE 12.7 mph - N/A Rain Light Rain